Location: ?????????
(54.7630°N, 39.4991°E)
Time: 11:56:06
(UTC+00:00)

ATLAS 5 CENTAUR R/B - Pass Details

Date: 14 April 2026
Orbit: 361 x 1064 km, 63.3° (Epoch: 10 May)

Event Time Altitude Azimuth Distance (km) Brightness Sun altitude
Rises 18:08:12 0° 292° (WNW) 2,314 6.0 -13.9°
Reaches altitude 10° 18:10:28 10° 310° (NW) 1,527 5.0 -14.2°
Maximum altitude 18:13:06 21° 2° (N) 1,108 3.3 -14.4°
Drops below altitude 10° 18:16:06 10° 53° (NE) 1,759 3.8 -14.8°
Enters shadow 18:18:24 - 67° (ENE) 2,587 4.5 -15.0°
